CZ-6A DEB, 60825

Orbit data source: Space-Track

CZ-6A DEB, 60825 is space debris in LEO originally from a launch on Tue, 06 Aug 2024 UTC launched from the Taiyaun Space Center, China (TSC). Debris objects in space refer to the collection of defunct objects orbiting the Earth. Examples of debris include non-operational satellites, rocket bodies, and fragments generated from explosions, collisions, or faulty payload assembly.

Loading next visibility...
Identifier
60825, 2024-140HC
Orbit
LEO
Country
Flag of CNCN / PRC
Related business
Manufacturer
SAST
Mission
Spacecraft
Bus & Motor
Unknown
Mass
Unknown
Launch date (UTC)
2024-08-06 (2 years ago)
Launch vehicle
Unknown
Launch site
Taiyaun Space Center, China (TSC)
Object type
Payload
Rocket body
Debris
Shape & HBR
Unknown shape, 0.1 m
Radar Cross Section
Medium (>0.1 m² and <1 m²)

Expand to show TLE details & history
Last TLE update: 14 hours ago

TLE from 14 hours ago
0 CZ-6A DEB
1 60825U 24140HC  26171.28908751  .00000725  00000-0  21677-3 0  9999
2 60825  88.7939 254.6523 0060977 339.4316  20.4431 14.40875046 97247
Epoch: 2026-06-20T06:56Z
TLE epoch observation values (Epoch: 2026-06-20T06:56:17.160Z)
Latitude
-0.00004°
Longitude
-117.92505°
Altitude
717.955 km
Speed
7.518 km/s
True Right ascension
16h 58m 36s
True Declination
0° 00' 00"
Sunlit
Object was in full shadow at epoch
Visualization orbit readout
Latitude
Unknown
Longitude
Unknown
Altitude
Unknown
Speed
Unknown
Apparent Right ascension
Unknown
Apparent Declination
Unknown
Sunlit
N/A
Visualization observer readout
Local Sidereal Time
07:23:38
Azimuth
Unknown
Elevation
Unknown
Doppler factor
Unknown
Orbital elements
Apogee altitude
796.012 km
Perigee altitude
709.051 km
Semi-major axis
7,130.668 km
Eccentricity
0.0061
Inclination
88.7939°
RAAN
254.6523°
Arg. of periapsis
339.4316°
True anomaly
20.68891°
Mean anomaly
20.4431°
Eccentric anomaly
20.56583°
Mean motion
3.60452 °/min
Orbital period
99.87 mins
BSTAR
0.00021677
Loading maneuver chart data...
Computing Atmospheric mass density...
Loading historical data...
Loading historical data...
Loading historical data...
Loading historical data...
Loading historical data...
Loading historical data...
Loading historical data...

Documentation

Showing up to 5 results
|